Temp
64 64 63 63 62 62 62 62 62 61 62 62 62 61 61 60 60 59 59 60 60 60 60 60 60 58 57 51 55 70 67 72 70 67 66 64 63 60 56 61 62 60 66 69 69 65 66
63 63 63 63 62 62 62 62 62 61 62 62 61 60 60 60 58 59 60 60 60 60 59 59 59 58 53 42 70 70 65 69 65 65 67 67 65 67 60 61 60 64 65 66 68 64 65
63 62 63 62 62 62 61 61 61 60 61 61 61 60 59 59 57 59 60 60 59 58 59 59 59 59 51 52 70 67 63 66 69 66 65 70 71 64 64 57 65 63 59 62 65 65 63
62 62 62 62 62 62 61 61 60 60 60 61 60 60 59 59 58 59 59 59 58 58 58 59 59 58 46 67 70 62 61 64 70 69 70 70 71 67 61 63 60 57 58 49 61 63 64
62 62 62 62 62 61 61 60 60 60 60 60 60 59 59 59 58 58 58 58 59 59 59 59 57 53 47 66 59 63 65 60 64 62 69 69 65 60 60 54 49 53 47 51 56 65 62
62 61 61 61 61 61 61 60 60 60 59 60 59 59 58 59 57 57 58 57 57 56 59 61 59 47 55 53 60 60 63 59 57 61 56 55 54 51 55 53 42 46 48 54 54 58 60
61 61 61 61 60 60 60 60 59 59 59 59 59 58 58 58 57 58 58 58 52 48 53 47 49 48 51 56 59 54 57 56 59 58 48 51 45 42 51 56 58 56 53 53 57 58 56
60 60 60 60 60 60 59 59 58 59 58 58 58 58 57 58 57 56 60 52 50 52 44 52 52 52 54 50 46 52 57 50 54 47 50 44 40 54 58 58 56 53 52 52 54 57 55
60 60 60 60 60 59 59 58 58 58 58 58 57 58 57 57 56 59 55 51 59 58 45 47 50 48 46 49 48 48 53 52 53 48 48 43 44 54 54 53 52 52 49 52 51 53 55
59 59 60 59 59 59 58 58 58 58 57 57 57 57 56 57 54 56 51 57 59 58 35 36 40 43 47 48 45 53 52 52 44 46 49 46 49 50 52 51 55 47 55 54 50 48 45
59 59 59 59 59 58 58 58 58 58 57 57 56 57 56 57 57 51 52 57 58 53 24 38 40 52 48 47 47 46 53 50 42 43 42 37 45 46 48 52 57 49 55 52 50 48 47
59 58 59 58 58 58 57 57 57 57 57 56 56 57 56 58 59 57 59 59 54 33 25 34 41 44 44 46 47 48 48 55 55 44 44 41 47 47 49 51 55 55 51 49 48 46 36
58 58 58 58 58 57 57 57 57 57 56 56 56 56 56 61 54 59 58 51 33 30 37 34 39 46 41 42 44 43 42 41 38 33 34 36 36 44 46 44 49 51 46 35 33 32 37
58 57 58 58 58 57 57 57 56 56 56 55 55 54 57 61 60 58 52 42 31 35 34 42 43 45 39 46 44 43 46 43 49 48 39 33 30 35 42 43 41 45 46 40 32 34 39
57 57 57 58 57 57 57 56 56 56 55 55 54 60 57 60 60 57 45 34 34 35 38 43 47 42 41 46 43 39 43 46 50 53 41 38 33 43 43 45 45 37 36 48 40 42 39
57 57 57 57 57 56 56 56 56 56 55 55 56 57 58 59 59 51 45 36 39 43 47 49 41 44 40 44 45 45 43 49 48 51 54 47 33 44 47 51 50 46 50 36 38 31 33
56 56 57 57 56 56 56 55 55 55 55 55 55 53 57 59 56 53 35 37 45 52 51 47 46 45 46 44 47 46 45 48 53 51 54 52 46 39 45 44 44 44 43 44 44 40 37
56 56 56 56 56 55 55 55 55 55 55 56 53 46 57 58 48 49 42 48 47 51 54 51 51 49 48 48 46 46 45 50 55 55 49 50 46 35 39 48 50 50 49 49 40 35 39
56 56 56 56 56 55 55 54 54 55 54 51 50 53 58 56 44 45 49 49 51 51 50 50 48 50 51 48 44 48 48 51 54 53 51 51 41 32 35 43 47 42 47 48 45 40 33
55 55 55 55 55 55 54 54 54 54 54 53 51 43 52 58 54 51 49 48 47 52 51 52 50 52 50 47 51 46 47 49 52 53 49 53 45 39 37 38 43 35 43 45 40 34 40
55 55 55 55 55 55 54 54 54 54 54 53 52 41 42 42 49 50 49 48 46 46 52 53 50 51 50 45 47 46 49 49 51 48 51 51 33 34 42 43 41 39 41 42 35 41 37
55 55 55 55 55 54 54 53 53 53 53 55 43 39 45 46 48 47 45 47 46 47 48 48 48 51 52 48 50 46 49 50 48 51 50 49 35 36 37 42 41 35 42 43 42 42 43
54 54 55 55 54 54 54 53 53 53 54 51 50 49 42 45 48 47 49 48 47 49 49 52 52 52 50 51 54 55 57 56 54 51 49 46 38 35 34 39 39 35 41 42 44 46 45
54 54 54 54 54 54 53 53 53 53 52 52 48 42 39 39 46 46 45 46 47 49 48 51 53 52 51 58 58 58 56 54 54 52 55 46 42 40 34 35 27 43 49 50 46 49 50
54 54 54 54 54 53 53 53 53 53 52 52 51 45 39 38 44 45 43 42 46 51 49 51 52 55 59 54 47 43 43 45 47 50 51 53 47 38 34 36 43 48 46 44 43 45 52
54 54 54 53 53 53 53 53 53 53 52 53 50 50 43 37 43 44 41 42 40 47 49 50 52 57 53 50 44 35 34 41 38 42 49 50 50 41 35 30 30 45 50 54 53 41 55
54 54 54 53 53 53 52 53 53 52 52 51 50 50 46 38 46 46 44 39 43 44 44 49 49 49 50 45 39 38 37 46 37 38 37 40 41 35 35 32 40 53 53 55 38 40 54
53 54 54 53 52 52 52 52 52 52 51 50 49 51 46 40 42 45 47 43 45 41 38 43 46 47 46 42 41 42 42 44 43 45 41 39 37 36 38 32 29 54 52 45 51 54 54
53 54 54 51 52 52 52 52 52 52 51 51 46 51 51 41 42 48 48 50 48 48 40 39 39 47 51 46 48 48 44 46 45 37 50 39 46 43 43 43 54 56 55 58 56 54 53
MSLP
1021.69 1021.40 1020.99 1020.46 1020.05 1019.55 1018.88 1018.34 1017.80 1017.53 1016.73 1016.07 1015.51 1015.05 1014.65 1014.24 1014.03 1013.87 1013.62 1013.35 1013.29 1013.19 1012.94 1012.91 1012.84 1013.04 1013.18 1012.15 1010.15 1009.85 1009.68 1009.68 1010.61 1011.31 1011.23 1011.28 1010.86 1011.16 1010.91 1010.77 1010.67 1010.34 1009.51 1009.87 1010.20 1010.73 1010.66
1021.69 1021.25 1020.83 1020.30 1019.88 1019.32 1018.97 1018.28 1017.74 1017.21 1016.56 1015.82 1015.25 1014.62 1014.04 1013.72 1013.58 1013.47 1013.30 1012.97 1012.92 1012.89 1012.70 1012.64 1012.64 1012.94 1012.73 1011.32 1009.64 1009.81 1010.41 1009.92 1010.32 1010.81 1010.64 1010.73 1010.40 1010.58 1010.72 1010.56 1010.48 1010.52 1010.37 1010.46 1010.56 1011.04 1011.07
1021.64 1021.25 1020.87 1020.42 1019.82 1019.32 1018.87 1018.26 1017.60 1017.17 1016.40 1015.69 1014.81 1014.20 1013.62 1013.28 1012.96 1012.93 1013.02 1012.76 1012.71 1012.72 1012.54 1012.50 1012.54 1012.64 1011.96 1010.34 1009.53 1009.86 1010.60 1009.94 1009.88 1010.48 1010.22 1010.46 1010.62 1010.72 1010.64 1010.96 1010.83 1010.97 1010.71 1010.83 1010.61 1010.88 1011.01
1021.71 1021.33 1020.98 1020.60 1020.00 1019.35 1018.81 1018.23 1017.64 1017.13 1016.33 1015.35 1014.55 1013.85 1013.09 1012.71 1012.58 1012.58 1012.75 1012.67 1012.54 1012.60 1012.42 1012.41 1012.40 1012.25 1011.00 1009.70 1009.92 1010.57 1010.63 1010.05 1009.40 1010.27 1010.40 1010.80 1010.83 1010.67 1011.03 1011.26 1011.43 1011.11 1011.04 1010.79 1010.48 1010.81 1010.89
1021.63 1021.24 1020.81 1020.26 1019.82 1019.37 1018.69 1018.08 1017.59 1016.96 1016.08 1015.24 1014.35 1013.52 1012.73 1012.14 1012.17 1012.29 1012.50 1012.42 1012.22 1012.13 1012.15 1012.17 1012.15 1011.87 1010.30 1009.49 1009.71 1010.02 1009.99 1009.75 1009.52 1010.43 1010.70 1011.32 1011.27 1011.23 1011.27 1011.03 1011.32 1011.08 1010.29 1010.13 1009.85 1010.02 1010.60
1021.68 1021.31 1020.87 1020.28 1019.79 1019.19 1018.56 1017.91 1017.43 1016.83 1016.08 1015.07 1014.34 1013.48 1012.41 1011.68 1011.70 1012.07 1012.38 1012.28 1012.05 1012.07 1011.95 1011.77 1011.67 1011.81 1010.11 1009.53 1009.56 1010.15 1010.26 1009.93 1009.75 1010.12 1011.44 1012.07 1012.04 1011.52 1010.95 1010.40 1009.65 1009.51 1009.71 1009.30 1009.39 1010.15 1010.26
1021.64 1021.25 1020.71 1020.27 1019.73 1019.15 1018.64 1018.02 1017.47 1016.87 1016.10 1015.24 1014.49 1013.72 1012.67 1011.74 1011.98 1012.26 1012.21 1011.89 1011.95 1011.83 1011.62 1011.12 1010.98 1010.80 1010.60 1010.64 1010.42 1010.21 1009.92 1010.25 1010.03 1010.58 1010.87 1011.74 1011.77 1010.90 1009.87 1009.74 1009.47 1009.24 1009.42 1009.10 1009.55 1010.42 1010.53
1021.51 1021.10 1020.68 1020.21 1019.68 1019.21 1018.73 1018.17 1017.67 1016.95 1016.15 1015.43 1014.73 1014.16 1013.59 1013.02 1012.78 1012.65 1012.07 1011.68 1012.16 1012.28 1011.45 1011.52 1011.34 1011.21 1011.21 1011.72 1010.50 1010.07 1010.71 1010.35 1009.84 1010.41 1011.07 1012.12 1011.53 1010.57 1010.25 1009.96 1009.80 1009.79 1009.16 1009.60 1010.24 1010.74 1011.11
1021.51 1021.20 1020.81 1020.44 1019.90 1019.29 1018.72 1018.29 1017.72 1017.08 1016.19 1015.60 1014.96 1014.33 1014.06 1013.70 1013.18 1012.48 1012.31 1012.65 1012.51 1012.25 1011.62 1011.88 1011.88 1011.68 1011.85 1011.57 1009.95 1010.25 1010.33 1010.23 1010.09 1010.58 1011.02 1011.28 1011.63 1010.86 1010.45 1010.09 1009.97 1010.04 1009.77 1009.64 1010.26 1011.21 1011.26
1021.57 1021.33 1020.93 1020.49 1019.86 1019.19 1018.78 1018.09 1017.68 1017.10 1016.34 1015.71 1015.01 1014.39 1014.04 1013.75 1013.72 1013.01 1012.86 1012.99 1012.87 1012.63 1011.94 1012.79 1012.50 1012.47 1012.21 1010.84 1010.76 1010.87 1011.16 1010.95 1011.27 1011.18 1011.75 1012.16 1012.03 1011.40 1010.73 1010.21 1010.08 1009.95 1010.36 1010.38 1011.07 1011.11 1010.53
1021.67 1021.44 1020.93 1020.44 1019.84 1019.29 1018.65 1018.31 1017.67 1017.08 1016.29 1015.66 1014.99 1014.41 1014.12 1013.35 1013.22 1013.29 1013.57 1013.18 1013.13 1012.69 1012.24 1012.87 1012.76 1012.38 1011.35 1010.81 1011.02 1011.63 1011.57 1011.48 1011.40 1011.75 1012.82 1013.07 1012.45 1011.96 1011.00 1010.49 1010.41 1010.54 1011.06 1011.53 1011.63 1011.23 1011.02
1021.68 1021.40 1020.86 1020.41 1019.90 1019.35 1018.73 1018.06 1017.67 1017.09 1016.37 1015.42 1014.89 1014.23 1014.05 1013.50 1013.21 1013.48 1013.28 1012.77 1012.96 1012.58 1012.37 1012.49 1012.24 1011.45 1011.09 1010.78 1010.63 1011.59 1011.27 1011.15 1011.20 1012.34 1013.06 1013.41 1013.45 1012.88 1012.27 1011.89 1011.25 1011.86 1012.05 1012.42 1012.27 1011.84 1011.20
1021.69 1021.31 1020.89 1020.31 1020.00 1019.39 1018.58 1017.87 1017.15 1016.69 1016.11 1015.23 1014.47 1014.08 1013.87 1013.24 1012.81 1013.33 1013.38 1012.88 1012.57 1012.18 1012.79 1012.32 1011.27 1010.54 1010.74 1010.49 1010.58 1011.21 1011.12 1011.10 1011.60 1012.48 1013.33 1014.08 1014.33 1013.91 1013.70 1013.07 1013.08 1012.25 1012.24 1012.23 1012.42 1012.03 1010.75
1021.60 1021.33 1020.71 1020.49 1019.87 1019.34 1018.69 1018.11 1017.29 1016.57 1015.93 1014.95 1014.04 1013.79 1013.41 1012.94 1013.30 1013.26 1013.04 1012.42 1012.22 1012.81 1012.29 1011.96 1011.18 1010.63 1010.47 1010.27 1010.76 1010.99 1010.49 1010.54 1010.99 1010.91 1012.10 1013.08 1014.65 1014.81 1014.42 1013.71 1013.45 1013.03 1012.25 1011.28 1010.88 1010.50 1010.45
1021.40 1021.14 1020.86 1020.23 1019.93 1019.44 1018.93 1018.08 1017.44 1016.51 1015.84 1014.75 1013.71 1013.06 1012.88 1012.55 1013.06 1013.04 1012.60 1011.90 1012.67 1012.48 1011.85 1010.85 1010.10 1009.74 1010.01 1010.11 1010.65 1011.14 1010.56 1010.11 1010.25 1009.98 1010.65 1011.82 1013.86 1014.54 1014.42 1014.20 1014.05 1014.01 1013.10 1012.45 1011.41 1010.70 1010.34
1021.35 1021.14 1020.84 1020.43 1020.01 1019.56 1018.91 1018.20 1017.38 1016.35 1015.60 1014.83 1013.59 1012.69 1012.17 1012.66 1012.87 1012.76 1011.77 1012.02 1012.07 1012.01 1011.25 1010.36 1009.56 1009.60 1009.31 1009.54 1009.66 1009.88 1010.20 1010.07 1010.00 1010.13 1009.91 1010.95 1012.67 1013.78 1013.74 1013.64 1013.52 1012.88 1012.86 1012.98 1012.16 1011.03 1009.74
1021.43 1021.11 1020.87 1020.64 1020.25 1019.72 1019.07 1018.27 1017.22 1016.50 1015.37 1014.71 1013.56 1012.32 1012.20 1012.67 1012.77 1011.63 1011.68 1011.91 1011.49 1011.10 1010.75 1010.10 1009.50 1009.17 1009.07 1009.17 1009.15 1009.29 1009.50 1009.97 1009.85 1010.00 1009.98 1010.33 1011.19 1013.44 1013.51 1012.97 1012.47 1012.88 1012.37 1012.33 1011.95 1011.30 1010.06
1021.41 1021.14 1020.77 1020.62 1020.27 1019.91 1019.11 1018.44 1017.67 1016.74 1015.89 1014.42 1013.61 1012.21 1012.31 1012.58 1011.83 1011.18 1011.06 1010.87 1010.98 1010.35 1010.11 1009.69 1009.53 1009.25 1008.92 1009.18 1009.12 1009.15 1009.27 1009.37 1009.87 1009.81 1009.87 1010.69 1011.36 1012.54 1012.92 1013.04 1012.83 1012.22 1011.72 1011.64 1011.52 1011.65 1011.37
1021.44 1021.14 1020.79 1020.49 1020.11 1019.71 1019.32 1018.49 1017.76 1016.98 1016.68 1015.91 1013.98 1012.39 1012.24 1012.10 1011.04 1010.67 1010.75 1010.47 1010.33 1009.96 1009.77 1009.38 1009.20 1009.30 1009.31 1009.03 1009.07 1009.19 1009.57 1010.24 1010.19 1010.12 1010.13 1010.66 1011.54 1012.50 1013.07 1013.32 1013.16 1012.81 1012.37 1012.20 1012.40 1012.24 1011.55
1021.20 1021.06 1020.80 1020.58 1020.33 1019.79 1019.52 1018.68 1017.92 1017.10 1016.27 1016.30 1014.51 1012.89 1011.92 1011.40 1011.37 1010.42 1010.19 1010.03 1009.95 1010.11 1009.76 1009.64 1009.41 1009.30 1009.10 1008.90 1009.02 1009.24 1009.66 1010.47 1010.67 1010.60 1011.00 1010.99 1011.44 1012.07 1012.15 1012.23 1012.33 1012.81 1012.42 1012.60 1012.86 1012.46 1011.17
1021.47 1021.03 1020.81 1020.55 1020.31 1019.98 1019.66 1019.15 1018.32 1017.49 1016.31 1016.08 1015.00 1014.88 1014.76 1012.37 1011.46 1011.10 1010.65 1010.24 1009.89 1009.82 1009.86 1009.70 1009.36 1009.08 1008.85 1008.80 1008.92 1009.09 1009.58 1010.17 1010.66 1011.12 1011.21 1011.31 1012.16 1012.81 1012.71 1012.66 1012.71 1012.64 1012.47 1012.58 1012.63 1012.11 1011.20
1021.33 1021.38 1021.09 1020.59 1020.50 1020.23 1019.94 1019.40 1018.65 1017.82 1016.45 1015.61 1016.24 1016.27 1015.36 1013.79 1012.66 1011.78 1010.96 1010.40 1010.14 1010.10 1010.04 1009.49 1009.20 1009.06 1009.02 1008.79 1008.72 1008.91 1009.33 1009.61 1009.83 1010.76 1010.98 1011.74 1012.53 1013.08 1012.94 1012.90 1012.93 1012.81 1012.39 1012.11 1012.11 1011.84 1011.04
1021.16 1021.33 1021.17 1020.82 1020.56 1020.37 1020.01 1019.54 1019.06 1018.41 1017.27 1016.68 1017.42 1017.14 1016.72 1014.42 1012.80 1012.06 1011.06 1010.87 1010.66 1010.53 1010.45 1010.03 1009.49 1009.27 1009.34 1009.49 1009.57 1009.54 1009.36 1009.57 1009.80 1010.20 1010.73 1011.52 1012.38 1013.00 1012.73 1012.97 1012.77 1011.87 1010.56 1010.68 1010.68 1010.49 1010.23
1021.03 1021.12 1020.98 1020.70 1020.61 1020.21 1020.08 1019.70 1019.30 1018.85 1018.73 1018.19 1018.56 1018.50 1017.19 1015.20 1013.77 1012.82 1012.64 1012.33 1011.44 1011.00 1010.48 1010.28 1010.03 1009.65 1010.48 1010.36 1010.17 1009.97 1009.99 1010.07 1010.17 1010.38 1010.59 1011.21 1012.06 1012.63 1012.72 1012.86 1011.60 1009.81 1009.60 1009.34 1009.56 1009.56 1009.68
1020.45 1020.81 1020.87 1020.78 1020.64 1020.38 1020.16 1020.00 1019.74 1019.37 1019.07 1018.53 1018.92 1018.83 1018.11 1016.42 1014.95 1013.88 1013.63 1013.30 1012.52 1011.61 1011.12 1010.70 1010.79 1010.60 1010.58 1010.53 1010.33 1010.35 1010.46 1010.48 1010.36 1010.61 1010.82 1010.97 1011.42 1011.90 1012.00 1011.25 1009.65 1008.50 1009.12 1009.18 1009.02 1008.58 1008.74
1020.54 1020.60 1020.64 1020.76 1020.76 1020.82 1020.54 1020.10 1019.94 1019.57 1019.46 1018.91 1019.00 1019.34 1018.80 1017.80 1015.44 1015.39 1014.74 1014.19 1013.47 1012.05 1011.66 1011.43 1011.65 1011.41 1011.29 1010.83 1010.70 1010.49 1010.13 1009.76 1010.10 1010.72 1011.06 1011.23 1011.28 1011.72 1011.93 1011.30 1009.40 1008.44 1008.55 1008.66 1008.72 1008.28 1008.34
1020.30 1020.28 1020.61 1020.75 1020.79 1020.77 1020.67 1020.14 1019.91 1019.78 1019.46 1019.49 1019.20 1019.52 1019.05 1018.06 1016.35 1016.00 1015.15 1015.00 1014.58 1013.80 1012.83 1012.06 1011.96 1011.93 1011.86 1011.17 1010.87 1010.39 1009.89 1009.76 1009.59 1009.77 1010.51 1010.83 1011.05 1011.25 1011.40 1010.91 1009.23 1008.12 1008.55 1008.68 1008.76 1009.26 1009.07
1019.95 1019.91 1020.14 1020.26 1020.65 1020.70 1020.51 1020.35 1020.16 1019.97 1019.59 1019.41 1019.18 1019.58 1019.37 1018.40 1017.13 1016.71 1016.27 1015.84 1015.11 1014.98 1014.29 1013.51 1012.83 1012.16 1011.84 1011.17 1010.61 1010.10 1009.54 1009.36 1009.26 1009.36 1009.80 1010.05 1010.26 1010.31 1010.52 1010.33 1009.15 1008.41 1008.74 1008.70 1008.74 1009.11 1009.46
1019.99 1020.04 1019.82 1020.08 1020.47 1020.45 1020.14 1019.99 1019.93 1020.00 1019.70 1019.28 1019.04 1019.39 1019.56 1019.08 1017.29 1016.81 1016.46 1016.26 1016.07 1015.83 1015.98 1015.11 1014.01 1012.45 1011.31 1010.88 1010.11 1009.67 1009.15 1009.02 1008.72 1008.80 1009.37 1009.42 1008.92 1009.05 1009.19 1008.62 1008.14 1008.30 1008.15 1008.47 1009.02 1009.44 1009.96
Wind_Speed
17 18 20 21 21 21 23 22 21 22 21 22 21 22 21 19 17 15 14 13 12 14 11 10 9 6 6 13 15 3 5 18 22 21 21 18 22 19 18 18 15 17 10 13 5 6 8
17 19 19 20 21 22 23 24 23 22 23 25 24 22 19 18 14 15 15 11 10 12 12 9 8 6 8 13 12 12 5 8 16 22 22 21 19 19 12 8 18 10 14 12 11 9 7
17 19 20 20 22 23 22 22 24 24 25 26 24 24 22 17 9 13 11 9 9 10 7 6 6 7 13 14 6 2 8 6 18 22 23 20 17 16 7 8 9 6 17 8 15 13 7
17 19 20 21 23 23 23 23 24 24 26 26 26 24 21 16 10 10 8 8 7 7 8 8 4 7 7 12 15 6 8 12 10 21 18 16 15 16 7 3 9 9 12 14 14 12 7
16 18 18 20 22 23 23 23 23 24 26 27 25 25 22 16 9 9 5 6 10 9 5 4 6 6 7 7 10 13 8 5 13 19 15 9 12 13 8 12 10 13 12 18 12 16 11
17 18 19 20 21 22 23 22 23 25 26 26 25 25 23 14 4 6 2 5 2 4 7 5 3 6 8 8 10 6 7 3 12 21 11 8 9 12 13 14 15 19 21 18 18 10 15
16 17 18 19 21 23 24 24 24 25 26 25 25 23 20 10 10 4 4 4 5 4 5 2 1 3 4 9 5 4 4 3 17 19 11 11 8 17 24 21 10 11 18 12 10 7 9
14 16 18 19 20 22 24 24 23 24 25 24 24 19 13 10 9 2 3 3 5 5 2 1 3 7 3 3 6 10 10 9 22 21 13 7 8 20 18 18 11 9 14 12 4 9 7
14 16 18 20 21 22 23 24 23 22 24 24 23 18 13 4 1 3 7 5 5 3 2 6 6 5 3 6 6 4 2 2 21 20 17 12 5 14 14 17 13 11 12 13 6 9 8
13 16 18 20 21 22 23 23 24 22 22 22 21 19 14 7 7 4 5 6 4 5 2 6 4 3 5 8 6 7 4 1 4 19 16 6 4 13 18 17 15 12 6 5 7 10 7
13 15 18 19 20 21 23 25 24 24 23 21 21 18 9 10 2 3 4 4 5 4 3 9 4 3 8 2 12 5 1 1 5 9 3 1 9 16 16 16 16 6 10 7 4 5 3
13 15 17 19 20 22 23 25 25 24 23 22 21 17 10 6 2 5 3 6 4 4 8 3 3 3 5 4 4 5 2 6 9 9 11 5 4 0 1 9 4 13 13 7 3 1 5
12 14 16 18 20 21 23 24 25 24 24 24 21 13 9 3 3 5 3 3 2 7 2 8 5 8 4 5 7 4 4 6 5 6 3 3 4 3 2 11 3 6 13 5 5 4 3
11 13 15 18 19 21 23 25 27 27 26 25 19 9 5 5 3 3 3 4 9 5 4 4 2 9 7 4 8 7 5 13 11 7 6 2 4 2 1 3 6 8 10 4 7 6 7
9 12 14 16 19 21 23 25 27 28 26 26 16 3 4 2 4 4 4 6 3 1 2 1 3 5 5 7 6 4 4 4 4 2 4 4 4 5 2 3 5 3 4 6 3 3 2
8 11 13 16 19 21 23 25 28 29 28 25 5 3 1 3 3 5 2 5 3 3 4 4 2 4 4 6 5 4 2 3 4 2 4 4 6 5 8 8 4 6 9 2 2 4 5
8 10 13 16 18 21 24 25 28 30 30 20 4 4 5 1 4 3 4 3 3 2 4 4 2 3 5 6 2 3 2 3 0 4 3 5 4 5 3 7 7 5 5 4 4 3 4
7 10 12 15 17 21 23 25 28 29 31 9 4 3 3 3 2 1 3 5 3 1 1 1 1 3 5 6 4 2 5 3 3 4 5 3 5 5 2 3 5 6 6 9 4 4 1
6 9 11 13 15 18 22 24 26 27 26 8 7 3 3 3 1 2 3 5 1 1 2 2 1 2 1 4 3 3 4 1 3 0 2 5 4 5 3 4 4 6 8 6 2 4 4
4 7 10 12 16 16 20 23 25 27 25 6 5 4 3 1 2 2 5 4 4 1 0 1 2 2 5 4 2 4 5 3 2 3 4 2 2 3 2 4 3 4 10 11 7 4 5
4 6 9 11 13 14 18 22 24 27 26 4 3 3 2 4 3 4 3 1 3 4 2 3 3 4 4 3 4 3 3 6 3 4 2 2 3 2 2 3 3 3 6 13 12 11 6
3 7 9 11 12 13 15 19 22 25 27 3 5 5 5 6 5 6 2 2 2 2 3 4 4 5 5 2 2 4 7 6 5 6 4 2 3 2 3 3 5 7 11 11 16 16 16
2 5 8 10 11 12 12 15 18 21 17 5 5 2 3 6 4 4 3 2 1 1 2 2 5 5 5 4 2 3 1 3 1 5 8 5 5 3 1 1 5 11 18 19 13 10 15
2 3 6 8 11 10 11 13 14 16 14 4 4 3 3 4 6 4 7 7 5 4 3 2 2 4 4 5 6 5 4 3 5 4 6 6 6 3 1 3 6 2 3 2 18 11 15
5 3 5 7 10 11 11 12 11 13 11 4 4 4 3 6 6 8 7 6 10 6 3 2 2 4 8 3 3 5 4 4 5 4 8 7 6 3 4 6 10 9 5 6 8 6 18
6 4 4 6 9 11 12 11 10 9 9 5 3 3 2 4 4 6 7 5 5 5 4 2 2 3 1 3 2 3 5 5 5 7 4 6 6 4 1 4 4 5 5 3 4 2 7
8 6 5 6 9 10 10 10 11 8 7 4 2 3 3 4 3 5 4 4 4 6 5 1 4 5 1 3 3 3 3 1 5 6 7 8 7 9 6 4 7 1 4 4 4 4 7
10 7 5 4 7 8 9 11 11 8 8 3 3 2 3 4 10 9 8 8 6 3 4 5 3 3 4 6 4 4 5 6 4 5 6 10 7 6 7 5 8 5 8 4 7 6 6
9 8 6 3 4 7 8 11 11 6 9 5 3 2 2 5 6 10 14 15 16 11 4 5 6 7 4 6 6 4 5 4 8 4 9 6 6 3 7 4 4 4 2 7 5 5 4
Wind_Direction
352 350 347 346 346 342 336 344 331 337 331 329 320 322 314 310 311 303 291 286 295 289 279 273 261 253 223 221 243 10 316 198 186 195 189 205 194 191 202 201 209 215 223 213 188 164 208
350 347 348 351 343 347 343 342 336 335 334 330 326 321 312 308 308 296 293 288 290 298 290 270 261 227 228 243 241 220 227 198 187 195 199 201 201 197 211 211 210 203 232 213 202 187 183
349 346 350 348 344 348 344 340 339 343 334 330 327 326 325 323 271 287 293 296 313 303 308 288 267 220 228 229 278 104 200 252 191 198 191 200 206 185 189 190 200 262 211 203 213 197 200
346 346 352 347 345 346 351 339 346 340 331 330 333 335 329 325 268 266 281 300 312 291 287 281 255 212 246 219 242 255 205 249 209 185 193 197 216 199 211 164 185 191 208 213 216 201 210
344 348 350 349 348 348 345 346 343 338 336 335 343 339 331 319 296 239 260 300 299 290 266 216 201 218 239 159 210 218 223 212 164 178 177 188 224 183 196 179 171 208 199 208 192 209 187
346 345 347 351 349 347 345 342 345 346 339 343 347 342 338 335 313 189 265 321 314 186 188 177 239 215 226 214 176 184 203 351 161 159 138 186 192 196 195 191 196 197 215 199 211 184 223
344 346 345 351 351 345 348 345 350 348 340 348 349 352 11 35 98 100 249 194 203 142 218 340 29 296 286 348 145 261 76 235 182 156 171 181 173 197 197 202 209 263 205 224 210 138 207
342 344 346 350 349 349 349 348 351 348 343 348 347 357 16 55 76 14 297 24 25 343 184 43 328 265 324 329 173 157 181 183 170 170 165 148 219 197 202 200 208 259 197 184 123 146 221
344 346 347 350 350 349 349 350 350 349 345 348 345 352 352 352 310 42 55 28 309 290 291 80 15 332 337 289 148 96 54 202 167 176 180 183 202 233 179 199 184 195 202 194 218 176 225
345 346 350 351 350 350 348 350 350 349 346 345 342 343 343 266 278 334 48 356 5 333 228 41 29 312 254 267 70 68 12 11 52 188 183 212 200 201 183 187 196 180 203 165 169 187 213
347 349 349 350 350 351 348 347 350 349 343 344 338 331 333 1 73 37 326 332 331 247 85 341 322 132 251 73 127 33 353 1 132 118 136 158 196 187 194 187 200 111 150 164 193 222 301
346 350 348 351 351 351 350 348 347 349 344 340 334 322 323 233 116 141 219 313 300 241 50 342 260 209 90 331 83 97 226 119 107 63 45 41 348 359 37 50 105 132 126 115 94 256 237
349 349 348 351 352 351 350 347 345 346 344 337 330 320 291 299 6 158 275 251 264 26 331 356 2 80 124 122 81 119 91 107 136 125 151 46 354 42 14 91 105 175 175 156 187 195 231
353 347 353 347 349 349 349 348 346 343 345 335 327 309 221 281 148 265 259 240 53 356 15 240 92 75 51 21 44 17 125 113 154 212 133 133 114 11 297 103 162 183 217 238 206 188 165
353 349 348 349 349 349 349 350 347 343 342 337 317 207 256 190 217 264 253 50 54 269 277 161 169 62 68 88 93 55 6 71 77 288 123 141 86 131 112 182 152 165 206 8 317 53 228
348 349 345 350 349 351 352 352 349 347 341 338 309 254 255 114 212 246 31 85 109 216 255 277 39 294 135 138 137 172 157 93 109 32 331 109 110 118 123 152 141 184 147 158 209 201 217
349 352 348 348 355 351 353 353 352 349 344 334 264 260 97 354 191 240 80 76 129 195 280 305 54 182 127 151 207 94 84 100 139 108 20 136 108 135 158 211 180 156 189 202 273 310 297
349 356 351 350 356 353 353 355 354 355 347 329 291 276 112 169 258 23 126 156 196 319 203 288 14 36 147 155 172 128 132 55 88 140 133 27 98 148 139 56 329 319 241 214 246 181 57
344 347 353 351 349 356 355 355 355 355 357 321 311 301 157 230 185 109 144 142 250 160 47 0 68 354 244 164 160 122 109 53 110 90 124 160 142 132 172 191 186 223 218 235 64 0 206
329 349 352 349 350 2 354 356 354 354 355 314 296 312 344 159 330 284 174 165 174 140 71 21 119 189 170 166 19 144 121 118 82 69 25 336 130 323 332 51 87 194 210 205 189 200 195
334 341 347 358 354 4 359 358 356 353 352 301 4 16 342 337 64 318 258 195 217 208 212 225 175 247 201 168 173 147 125 140 149 134 125 328 122 81 9 71 98 257 217 208 208 223 229
324 343 351 358 355 357 1 2 360 1 340 55 356 347 340 288 294 280 188 169 229 161 255 190 257 177 190 228 255 178 189 188 185 178 184 116 122 138 258 214 244 258 245 225 222 230 247
349 336 345 353 353 356 347 6 3 11 358 19 12 315 294 293 301 267 34 39 121 258 139 281 281 191 207 78 35 1 143 280 51 190 192 166 141 167 243 187 275 262 230 215 213 214 223
241 296 322 343 352 353 348 357 9 12 15 358 33 300 310 297 291 344 347 328 304 327 329 114 225 268 61 140 125 120 119 126 160 181 191 184 165 182 282 225 235 75 69 216 222 229 219
208 256 321 335 340 348 348 345 359 8 15 21 17 338 331 293 303 284 332 328 300 268 258 275 65 32 148 121 132 147 157 182 167 193 192 219 192 191 245 224 295 254 180 182 177 243 221
229 244 293 327 341 339 343 344 345 356 12 338 50 334 298 308 53 352 311 314 316 275 197 170 94 182 114 221 193 225 206 217 177 167 212 203 234 227 99 264 255 56 135 162 190 220 159
225 235 286 320 332 335 335 344 349 352 359 338 357 5 292 285 310 320 312 319 319 294 283 104 161 179 237 194 221 244 235 271 204 203 185 190 202 221 222 259 289 287 132 155 224 94 105
225 231 261 276 323 333 336 340 331 346 342 285 330 278 323 288 289 271 286 277 279 279 305 15 203 212 197 221 218 198 243 209 232 210 183 189 197 199 209 213 254 118 140 240 99 81 42
238 241 276 236 307 313 329 328 323 317 347 305 281 148 250 253 278 298 268 269 268 271 298 308 321 308 235 229 218 204 212 193 232 223 185 218 223 206 212 217 128 184 254 118 99 72 46